User: anonymous   Login
Location: Eschertshofen
(49.3064°N, 11.5756°E)
Time: 19:43:54
(UTC+00:00)
Language:

KORONAS-FOTON - Orbit

View from above orbital plane
View from above orbital plane
View from above satellite
View from above satellite

Ground track
Ground track

The orbit data is extracted from the following two-line orbital elements,

1 33504U 09003A   20333.48981890  .00000573  00000-0  28175-4 0  9997
2 33504  82.4439  59.5940 0020510  73.2474 287.1006 15.15782340652333
Epoch (UTC): 28 November 2020 11:45:20
Eccentricity: 0.0020510
inclination: 82.4439°
perigee height: 504 km
apogee height: 533 km
right ascension of ascending node: 59.5940°
argument of perigee: 73.2474°
revolutions per day: 15.15782340
mean anomaly at epoch: 287.1006°
orbit number at epoch: 65233

The dashed part of the orbit path shows where the satellite is in the earth's shadow,  

DLR